KB9ZI Weather Reports


time (UTC)temp
F
wind
direction
speed
knots
gust
knots
rain 1hr
in
rain 24hr
in
rain mn
in
humidity
%
barometer
mb
20260906091209 69 55 0.0 2.6 0.00 0.01 0.01 95 1017.0
20260906091026 69 55 0.0 2.6 0.00 0.01 0.01 96 1017.0
20260906091009 69 55 0.0 2.6 0.00 0.01 0.01 96 1017.0
20260906090609 70 58 0.0 2.6 0.00 0.01 0.01 96 1017.0
20260906090508 70 58 0.0 2.6 0.00 0.01 0.01 96 1017.0
20260906090409 70 58 0.0 3.5 0.00 0.01 0.01 96 1017.1
20260906090210 70 49 0.0 3.5 0.00 0.01 0.01 96 1017.1
20260906090011 70 48 0.0 3.5 0.00 0.01 0.01 96 1017.1
20260906085809 70 48 0.0 3.5 0.00 0.01 0.01 96 1017.1
20260906085615 70 47 0.0 1.7 0.00 0.01 0.01 95 1017.1
20260906085608 70 48 0.0 3.5 0.00 0.01 0.01 96 1017.1
20260906085508 70 48 0.0 3.5 0.00 0.01 0.01 95 1017.1
20260906085209 70 44 0.0 1.7 0.00 0.01 0.01 95 1017.2
20260906085009 70 42 0.0 2.6 0.00 0.01 0.01 95 1017.2
20260906084809 70 42 0.0 2.6 0.00 0.01 0.01 95 1017.1
20260906084609 70 42 0.0 2.6 0.00 0.01 0.01 95 1017.2
20260906084508 70 42 0.0 2.6 0.00 0.01 0.01 95 1017.1
20260906084408 70 42 0.0 2.6 0.00 0.01 0.01 95 1017.1
20260906084209 70 42 0.0 2.6 0.00 0.01 0.01 95 1017.1
20260906084009 70 44 0.0 2.6 0.00 0.01 0.01 95 1017.1
20260906083809 70 65 0.0 1.7 0.00 0.01 0.01 95 1017.0
20260906083609 70 44 0.0 1.7 0.00 0.01 0.01 95 1016.9
20260906083507 70 41 0.0 1.7 0.00 0.01 0.01 95 1016.9
20260906083409 70 41 0.0 1.7 0.00 0.01 0.01 95 1016.9
20260906083213 70 41 0.0 0.9 0.00 0.01 0.01 95 1016.9
20260906083111 70 39 0.0 1.7 0.00 0.01 0.01 95 1016.9
20260906083009 70 39 0.0 1.7 0.00 0.01 0.01 95 1016.9
20260906082811 70 39 0.0 1.7 0.00 0.01 0.01 95 1016.9
20260906082710 70 39 0.0 1.7 0.00 0.01 0.01 96 1016.8
20260906082509 70 39 0.0 2.6 0.00 0.01 0.01 96 1016.9
20260906082408 70 39 0.0 2.6 0.00 0.01 0.01 96 1016.8
20260906082211 70 39 0.0 2.6 0.00 0.01 0.01 96 1016.9
20260906082009 70 39 0.0 2.6 0.00 0.01 0.01 96 1016.9
20260906081810 70 20 0.0 2.6 0.00 0.01 0.01 95 1016.8
20260906081710 70 47 0.0 3.5 0.00 0.01 0.01 95 1016.8
20260906081508 70 39 0.0 3.5 0.00 0.01 0.01 95 1016.8
20260906081410 70 39 0.0 3.5 0.00 0.01 0.01 96 1016.8
20260906081308 70 41 0.0 3.5 0.00 0.01 0.01 96 1016.9
20260906081009 70 38 0.0 3.5 0.00 0.01 0.01 96 1016.8
20260906080809 70 52 0.0 3.5 0.00 0.01 0.01 95 1016.9
20260906080609 70 44 0.0 3.5 0.00 0.01 0.01 95 1016.9
20260906080507 70 45 0.0 3.5 0.00 0.01 0.01 95 1016.9
20260906080410 70 47 0.0 3.5 0.00 0.01 0.01 95 1016.8
20260906080311 70 48 0.0 3.5 0.00 0.01 0.01 95 1016.9
20260906080011 70 48 0.0 5.2 0.00 0.01 0.01 95 1016.9
20260906075809 70 39 0.0 5.2 0.00 0.01 0.01 95 1016.9
20260906075708 70 42 0.0 5.2 0.00 0.01 0.01 95 1016.9
20260906075517 70 41 0.0 5.2 0.00 0.01 0.01 96 1016.9
20260906075508 70 41 0.0 5.2 0.00 0.01 0.01 95 1016.9
20260906075208 70 97 0.0 5.2 0.00 0.01 0.01 95 1016.9
20260906075009 70 66 0.0 2.6 0.00 0.01 0.01 95 1016.9
20260906074809 70 96 0.0 2.6 0.00 0.01 0.01 95 1016.9
20260906074801 70 44 0.0 2.6 0.00 0.01 0.01 95 1016.9
20260906074736 70 44 0.0 2.6 0.00 0.01 0.01 95 1016.9
20260906074409 71 37 0.0 3.5 0.00 0.01 0.01 95 1016.9
20260906074313 70 44 0.0 3.5 0.00 0.01 0.01 95 1016.9
20260906074113 71 42 0.0 3.5 0.00 0.01 0.01 95 1016.9
20260906074009 71 42 0.0 3.5 0.00 0.01 0.01 95 1016.9
20260906073810 71 41 0.0 3.5 0.00 0.01 0.01 95 1016.9
20260906073758 71 41 0.0 3.5 0.00 0.01 0.01 95 1017.0
20260906073737 71 41 0.0 3.5 0.00 0.01 0.01 95 1017.0
20260906073409 71 42 0.0 2.6 0.00 0.01 0.01 95 1017.1
20260906073209 71 41 0.0 2.6 0.00 0.01 0.01 95 1017.1
20260906073009 71 41 0.0 2.6 0.00 0.01 0.01 95 1017.0
20260906072937 71 42 0.0 0.0 0.00 0.01 0.01 95 1017.0
20260906072809 71 45 0.0 1.7 0.00 0.01 0.01 95 1017.0
20260906072755 71 42 0.0 0.0 0.00 0.01 0.01 95 1017.0
20260906072409 71 42 0.0 0.0 0.00 0.01 0.01 95 1017.1
20260906072209 71 42 0.0 0.0 0.00 0.01 0.01 95 1017.1
20260906072008 71 44 0.0 0.0 0.00 0.01 0.01 95 1017.2
20260906071841 71 39 0.0 0.0 0.00 0.01 0.01 95 1017.2
20260906071808 71 41 0.0 0.0 0.00 0.01 0.01 95 1017.2
20260906071758 71 41 0.0 0.0 0.00 0.01 0.01 95 1017.3
20260906071754 71 41 0.0 0.0 0.00 0.01 0.01 95 1017.3
20260906071209 71 39 0.0 0.0 0.00 0.01 0.01 95 1017.3
20260906071009 71 37 0.0 0.0 0.00 0.01 0.01 95 1017.2
20260906070805 71 35 0.0 0.0 0.01 0.01 0.01 95 1017.3
20260906070659 71 34 0.0 0.0 0.01 0.01 0.01 95 1017.4
20260906070510 71 34 0.0 0.0 0.01 0.01 0.01 95 1017.4
20260906070404 71 34 0.0 0.0 0.01 0.01 0.01 95 1017.4
20260906070300 71 34 0.0 0.0 0.01 0.00 0.01 95 1017.3
20260906070247 71 35 0.0 0.0 0.01 0.01 0.01 95 1017.4
20260906065804 71 34 0.0 0.0 0.01 0.00 0.01 95 1017.4
20260906065602 71 32 0.0 0.0 0.01 0.00 0.01 95 1017.4
20260906065501 71 31 0.0 0.0 0.01 0.00 0.01 95 1017.4
20260906065403 71 31 0.0 0.0 0.01 0.00 0.01 95 1017.4
20260906065346 71 31 0.0 0.0 0.01 0.00 0.01 95 1017.3
20260906065300 71 3 0.0 0.0 0.01 0.00 0.01 95 1017.4
20260906065213 71 3 0.0 0.0 0.01 0.00 0.01 95 1017.4
20260906064802 71 0 0.0 0.0 0.01 0.00 0.01 95 1017.4
20260906064709 71 1 0.0 0.0 0.01 0.00 0.01 95 1017.5
20260906064501 71 35 0.0 0.0 0.01 0.00 0.01 95 1017.4
20260906064401 71 44 0.0 0.0 0.01 0.00 0.01 95 1017.5
20260906064258 71 44 0.0 0.0 0.01 0.00 0.01 95 1017.4
20260906064245 71 47 0.0 0.0 0.01 0.00 0.01 95 1017.5
20260906064217 71 44 0.0 0.0 0.01 0.00 0.01 95 1017.4
20260906063848 71 31 0.0 0.0 0.01 0.00 0.01 95 1017.5
20260906063546 71 32 0.0 0.0 0.01 0.00 0.01 95 1017.5
20260906063455 71 34 0.0 0.0 0.01 0.00 0.01 95 1017.5
20260906063344 71 32 0.0 0.0 0.01 0.00 0.01 95 1017.5
20260906063143 71 32 0.0 0.0 0.01 0.00 0.01 95 1017.4
20260906063040 71 32 0.0 0.0 0.01 0.00 0.01 95 1017.4
20260906062954 71 32 0.0 0.0 0.01 0.00 0.01 95 1017.4
20260906062743 71 32 0.0 0.0 0.01 0.00 0.01 95 1017.5
20260906062544 71 32 0.0 0.0 0.01 0.00 0.01 95 1017.5
20260906062450 71 55 0.0 0.0 0.01 0.00 0.01 95 1017.4
20260906062436 71 51 0.0 0.0 0.01 0.00 0.01 95 1017.4
20260906062138 71 109 0.0 0.0 0.01 0.00 0.01 95 1017.4
20260906061951 71 34 0.0 0.0 0.01 0.00 0.01 95 1017.4
20260906061934 71 16 0.0 0.0 0.01 0.00 0.01 95 1017.4
20260906061732 71 6 0.0 0.0 0.01 0.00 0.01 95 1017.4
20260906061631 71 0 0.0 0.0 0.01 0.00 0.01 95 1017.5
20260906061448 71 0 0.0 0.0 0.01 0.00 0.01 95 1017.6
20260906061329 71 0 0.0 0.0 0.01 0.00 0.01 95 1017.6
20260906061126 71 0 0.0 0.0 0.01 0.00 0.01 95 1017.5
20260906061034 71 0 0.0 0.0 0.01 0.00 0.00 95 1017.5
20260906060948 71 0 0.0 0.0 0.01 0.00 0.00 95 1017.5
20260906060728 71 0 0.0 0.0 0.00 0.00 0.00 95 1017.5
20260906060530 72 0 0.0 0.0 0.00 0.00 0.00 95 1017.5
20260906060445 71 0 0.0 0.0 0.00 0.00 0.00 95 1017.5
20260906060317 71 0 0.0 0.0 0.00 0.00 0.00 95 1017.5
20260906060217 72 0 0.0 0.0 0.00 0.00 0.00 95 1017.5
20260906055951 72 0 0.0 0.0 0.00 0.00 0.00 95 1017.4
20260906055914 72 0 0.0 0.0 0.00 0.00 0.00 95 1017.4
20260906055714 72 0 0.0 0.0 0.00 0.00 0.00 95 1017.4
20260906055516 72 61 0.0 0.0 0.00 0.00 0.00 95 1017.5
20260906055431 72 61 0.0 0.0 0.00 0.00 0.00 95 1017.5
20260906055310 72 61 0.0 0.0 0.00 0.00 0.00 95 1017.4
20260906055107 72 140 0.0 0.0 0.00 0.00 0.00 95 1017.5
20260906054905 72 140 0.0 0.0 0.00 0.00 0.00 94 1017.5
20260906054704 72 140 0.0 0.0 0.00 0.00 0.00 94 1017.5
20260906054506 72 140 0.0 0.0 0.00 0.00 0.00 94 1017.5
20260906054435 72 140 0.0 0.0 0.00 0.00 0.00 94 1017.5
20260906054347 72 140 0.0 0.0 0.00 0.00 0.00 94 1017.5
20260906054305 72 140 0.0 0.0 0.00 0.00 0.00 94 1017.5
20260906054153 72 140 0.0 0.0 0.00 0.00 0.00 94 1017.4
20260906053857 72 140 0.0 0.0 0.00 0.00 0.00 94 1017.5
20260906053657 72 140 0.0 0.0 0.00 0.00 0.00 94 1017.5
20260906053456 72 140 0.0 0.0 0.00 0.00 0.00 94 1017.5
20260906053410 72 140 0.0 0.0 0.00 0.00 0.00 94 1017.5
20260906053252 72 140 0.0 0.0 0.00 0.00 0.00 94 1017.4
20260906053159 72 140 0.0 0.0 0.00 0.00 0.00 94 1017.4
20260906053145 72 140 0.0 0.0 0.00 0.00 0.00 94 1017.4
20260906052854 72 140 0.0 0.0 0.00 0.00 0.00 94 1017.4
20260906052838 72 140 0.0 0.0 0.00 0.00 0.00 94 1017.5
20260906052445 72 140 0.0 0.0 0.00 0.00 0.00 94 1017.4
20260906052409 72 140 0.0 0.0 0.00 0.00 0.00 94 1017.4
20260906052243 72 140 0.0 0.0 0.00 0.00 0.00 94 1017.5
20260906052204 72 140 0.0 0.0 0.00 0.00 0.00 94 1017.5
20260906052146 72 140 0.0 0.0 0.00 0.00 0.00 94 1017.4
20260906051842 72 140 0.0 0.0 0.00 0.00 0.00 94 1017.4
20260906051643 72 140 0.0 0.0 0.00 0.00 0.00 94 1017.4
20260906051439 72 140 0.0 0.0 0.00 0.00 0.00 94 1017.5
20260906051408 72 140 0.0 0.0 0.00 0.00 0.00 94 1017.5
20260906051238 72 140 0.0 0.0 0.00 0.00 0.00 94 1017.5
20260906051140 72 140 0.0 0.0 0.00 0.00 0.00 94 1017.6
20260906050908 72 140 0.0 0.0 0.00 0.00 0.00 94 1017.5
20260906050839 72 140 0.0 0.0 0.00 0.00 0.00 94 1017.6
20260906050631 72 140 0.0 0.0 0.00 0.00 0.00 94 1017.6
20260906050407 72 140 0.0 0.0 0.00 0.00 0.00 94 1017.6
20260906050234 72 140 0.0 0.0 0.00 0.00 0.00 94 1017.6
20260906050107 72 140 0.0 0.0 0.00 0.00 0.00 94 1017.7
20260906045907 72 140 0.0 0.0 0.00 0.00 0.00 94 1017.7
20260906045807 72 140 0.0 0.0 0.00 0.00 0.00 94 1017.7
20260906045709 72 140 0.0 0.0 0.00 0.00 0.00 94 1017.7
20260906045412 72 140 0.0 0.0 0.00 0.00 0.00 94 1017.7
20260906045206 72 140 0.0 0.0 0.00 0.00 0.00 94 1017.7
20260906045007 72 140 0.0 0.0 0.00 0.00 0.00 94 1017.7
20260906044912 72 140 0.0 0.0 0.00 0.00 0.00 94 1017.7
20260906044805 72 140 0.0 0.0 0.00 0.00 0.00 94 1017.7
20260906044707 72 140 0.0 0.0 0.00 0.00 0.00 94 1017.7
20260906044409 72 140 0.0 0.0 0.00 0.00 0.00 94 1017.7
20260906044302 72 140 0.0 0.0 0.00 0.00 0.00 94 1017.8
20260906044008 72 140 0.0 0.0 0.00 0.00 0.00 94 1017.8
20260906043911 72 140 0.0 0.0 0.00 0.00 0.00 94 1017.8
20260906043807 72 140 0.0 0.0 0.00 0.00 0.00 94 1017.8
20260906043605 72 140 0.0 0.0 0.00 0.00 0.00 94 1017.8
20260906043407 0 0.0 0.0 0.00 0.00 0.00 1017.7
20260906043107 0 0.0 0.0 0.00 0.00 0.00
20260906042839 0 0.0 0.0 0.00 0.00 0.00
20260906042734 0 0.0 0.0 0.00 0.00 0.00
20260906042603 0 0.0 0.0 0.00 0.00 0.00
20260906042435 0 0.0 0.0 0.00 0.00 0.00
20260906042338 0 0.0 0.0 0.00 0.00 0.00
20260906042102 0 0.0 0.0 0.00 0.00 0.00
20260906042007 0 0.0 0.0 0.00 0.00 0.00
20260906041840 0 0.0 0.0 0.00 0.00 0.00 1017.8
20260906041818 0 0.0 0.0 0.00 0.00 0.00 1017.8
20260906041406 72 140 0.0 0.0 0.00 0.00 0.00 93 1017.8
20260906041309 72 140 0.0 0.0 0.00 0.00 0.00 93 1017.8
20260906041051 72 140 0.0 0.0 0.00 0.00 0.00 93 1017.8
20260906040952 72 140 0.0 0.0 0.00 0.00 0.00 93 1017.8
20260906040917 72 140 0.0 0.0 0.00 0.00 0.00 93 1017.8
20260906040801 72 140 0.0 0.0 0.00 0.00 0.00 93 1017.8
20260906040352 72 140 0.0 0.0 0.00 0.00 0.00 93 1017.8
20260906040151 72 140 0.0 0.0 0.00 0.00 0.00 92 1017.8
20260906040036 72 140 0.0 0.0 0.00 0.00 0.00 92 1017.9
20260906035952 72 140 0.0 0.0 0.00 0.00 0.00 92 1017.9
20260906035922 72 140 0.0 0.0 0.00 0.00 0.00 92 1017.8
20260906035830 72 140 0.0 0.0 0.00 0.00 0.00 92 1017.8
20260906035754 72 140 0.0 0.0 0.00 0.00 0.00 92 1017.8
20260906035453 72 140 0.0 0.0 0.00 0.00 0.00 92 1017.8
20260906035151 72 140 0.0 0.0 0.00 0.00 0.00 92 1017.8
20260906035030 72 140 0.0 0.0 0.00 0.00 0.00 92 1017.8
20260906034951 72 140 0.0 0.0 0.00 0.00 0.00 92 1017.8
20260906034753 72 140 0.0 0.0 0.00 0.00 0.00 92 1017.8
20260906034531 73 140 0.0 0.0 0.00 0.00 0.00 92 1017.7
20260906034452 73 140 0.0 0.0 0.00 0.00 0.00 92 1017.7
20260906034150 73 140 0.0 0.0 0.00 0.00 0.00 92 1017.7
20260906034053 73 140 0.0 0.0 0.00 0.00 0.00 92 1017.7
20260906034011 73 140 0.0 0.0 0.00 0.00 0.00 92 1017.7
20260906033811 73 140 0.0 0.0 0.00 0.00 0.00 92 1017.7
20260906033804 73 140 0.0 0.0 0.00 0.00 0.00 92 1017.8
20260906033736 73 140 0.0 0.0 0.00 0.00 0.00 92 1017.6
20260906033351 73 140 0.0 0.0 0.00 0.00 0.00 92 1017.7
20260906033156 73 140 0.0 0.0 0.00 0.00 0.00 91 1017.7
20260906033052 73 140 0.0 0.0 0.00 0.00 0.00 91 1017.7
20260906033013 73 140 0.0 0.0 0.00 0.00 0.00 91 1017.7
20260906032834 73 140 0.0 0.0 0.00 0.00 0.00 91 1017.7
20260906032802 73 140 0.0 0.0 0.00 0.00 0.00 91 1017.7
20260906032756 73 140 0.0 0.0 0.00 0.00 0.00 91 1017.7
20260906032351 73 140 0.0 0.0 0.00 0.00 0.00 91 1017.8
20260906032152 73 140 0.0 0.0 0.00 0.00 0.00 91 1017.6
20260906032008 73 140 0.0 0.0 0.00 0.00 0.00 91 1017.7
20260906031951 73 140 0.0 0.0 0.00 0.00 0.00 91 1017.7
20260906031828 73 140 0.0 0.0 0.00 0.00 0.00 91 1017.7
20260906031755 73 140 0.0 0.0 0.00 0.00 0.00 91 1017.6
20260906031751 73 140 0.0 0.0 0.00 0.00 0.00 91 1017.6
20260906031347 73 140 0.0 0.0 0.00 0.00 0.00 91 1017.6
20260906031247 73 140 0.0 0.0 0.00 0.00 0.00 91 1017.6
20260906031003 73 140 0.0 0.0 0.00 0.00 0.00 91 1017.6
20260906030946 73 140 0.0 0.0 0.00 0.00 0.00 91 1017.7
20260906030746 73 140 0.0 0.0 0.00 0.00 0.00 91 1017.8
20260906030546 73 140 0.0 0.0 0.00 0.00 0.00 91 1017.8
20260906030516 73 140 0.0 0.0 0.00 0.00 0.00 91 1017.8
20260906030341 73 140 0.0 0.0 0.00 0.00 0.00 91 1017.8
20260906030242 73 140 0.0 0.0 0.00 0.00 0.00 91 1017.9
20260906030002 73 140 0.0 0.0 0.00 0.00 0.00 91 1017.8
20260906025933 73 140 0.0 0.0 0.00 0.00 0.00 91 1017.7
20260906025832 73 140 0.0 0.0 0.00 0.00 0.00 91 1017.7
20260906025503 73 140 0.0 0.0 0.00 0.00 0.00 91 1017.8
20260906025332 74 140 0.0 0.0 0.00 0.00 0.00 91 1017.9
20260906025130 74 140 0.0 0.0 0.00 0.00 0.00 91 1017.9
20260906025006 74 140 0.0 0.0 0.00 0.00 0.00 91 1017.9
20260906024930 74 140 0.0 0.0 0.00 0.00 0.00 91 1017.9
20260906024829 74 140 0.0 0.0 0.00 0.00 0.00 91 1017.9
20260906024532 74 140 0.0 0.0 0.00 0.00 0.00 91 1018.0
20260906024502 74 140 0.0 0.0 0.00 0.00 0.00 90 1018.0
20260906024428 74 140 0.0 0.0 0.00 0.00 0.00 91 1018.0
20260906024116 74 140 0.0 0.0 0.00 0.00 0.00 90 1018.0
20260906024004 74 140 0.0 0.0 0.00 0.00 0.00 90 1018.0
20260906023915 74 140 0.0 0.0 0.00 0.00 0.00 91 1018.0
20260906023713 74 140 0.0 0.0 0.00 0.00 0.00 90 1017.8
20260906023515 74 140 0.0 0.0 0.00 0.00 0.00 90 1017.8
20260906023501 74 140 0.0 0.0 0.00 0.00 0.00 90 1017.8
20260906023409 74 140 0.0 0.0 0.00 0.00 0.00 90 1017.8
20260906023111 74 140 0.0 0.0 0.00 0.00 0.00 90 1017.7
20260906022959 74 140 0.0 0.0 0.00 0.00 0.00 90 1017.7
20260906022906 74 140 0.0 0.0 0.00 0.00 0.00 90 1017.7
20260906022707 74 140 0.0 0.0 0.00 0.00 0.00 90 1017.7
20260906022510 74 140 0.0 0.0 0.00 0.00 0.00 90 1017.6
20260906022501 74 140 0.0 0.0 0.00 0.00 0.00 90 1017.6
20260906022404 74 140 0.0 0.0 0.00 0.00 0.00 90 1017.7
20260906022103 74 140 0.0 0.0 0.00 0.00 0.00 90 1017.6
20260906022014 74 140 0.0 0.0 0.00 0.00 0.00 90 1017.5
20260906021959 74 140 0.0 0.0 0.00 0.00 0.00 90 1017.6
20260906021702 74 140 0.0 0.0 0.00 0.00 0.00 90 1017.6
20260906021504 74 140 0.0 0.0 0.00 0.00 0.00 90 1017.4
20260906021453 74 140 0.0 0.0 0.00 0.00 0.00 90 1017.4
20260906021303 74 140 0.0 0.0 0.00 0.00 0.00 90 1017.5
20260906021103 74 140 0.0 0.0 0.00 0.00 0.00 89 1017.3
20260906020954 74 140 0.0 0.0 0.00 0.00 0.00 89 1017.3
20260906020702 74 140 0.0 0.0 0.00 0.00 0.00 89 1017.1
20260906020604 74 140 0.0 0.0 0.00 0.00 0.00 89 1017.1
20260906020453 74 140 0.0 0.0 0.00 0.00 0.00 89 1017.1
20260906020301 74 140 0.0 0.0 0.00 0.00 0.00 89 1017.1
20260906020057 74 140 0.0 0.0 0.00 0.00 0.00 88 1017.1
20260906015952 74 140 0.0 0.0 0.00 0.00 0.00 88 1017.0
20260906015857 74 140 0.0 0.0 0.00 0.00 0.00 88 1017.0
20260906015656 75 140 0.0 0.0 0.00 0.00 0.00 88 1016.9
20260906015558 75 140 0.0 0.0 0.00 0.00 0.00 88 1016.8
20260906015452 75 140 0.0 0.0 0.00 0.00 0.00 88 1016.8
20260906015256 75 140 0.0 0.0 0.00 0.00 0.00 88 1016.7
20260906015055 75 140 0.0 0.0 0.00 0.00 0.00 88 1016.7
20260906014952 75 140 0.0 0.0 0.00 0.00 0.00 88 1016.7
20260906014856 75 140 0.0 0.0 0.00 0.00 0.00 88 1016.7
20260906014746 75 140 0.0 0.0 0.00 0.00 0.00 88 1016.6
20260906014734 75 140 0.0 0.0 0.00 0.00 0.00 88 1016.6
20260906014704 75 140 0.0 0.0 0.00 0.00 0.00 88 1016.6
20260906014249 75 140 0.0 0.0 0.00 0.00 0.00 88 1016.6
20260906014152 75 140 0.0 0.0 0.00 0.00 0.00 87 1016.5
20260906013956 75 140 0.0 0.0 0.00 0.00 0.00 87 1016.5
20260906013947 0 140 0.0 0.0 0.00 0.00 0.00 1016.5
20260906013647 0 131 0.0 0.0 0.00 0.00 0.00 1016.4
20260906013452 0 131 0.0 0.0 0.00 0.00 0.00 1016.4
20260906013205 0 0.0 0.0 0.00 0.00 0.00
20260906013106 0 0.0 0.0 0.00 0.00 0.00
20260906012838 0 0.0 0.0 0.00 0.00 0.00
20260906012635 0 0.0 0.0 0.00 0.00 0.00
20260906012534 0 0.0 0.0 0.00 0.00 0.00
20260906012306 0 0.0 0.0 0.00 0.00 0.00
20260906012131 0 0.0 0.0 0.00 0.00 0.00
20260906012006 0 0.0 0.0 0.00 0.00 0.00 1015.9
20260906011810 0 0.0 0.0 0.00 0.00 0.00 1015.9
20260906011631 0 0.0 0.0 0.00 0.00 0.00 1015.9
20260906011606 0 118 0.0 0.0 0.00 0.00 0.00 1015.9
20260906011335 77 118 0.0 0.0 0.00 0.00 0.00 84 1015.9
20260906011135 77 118 0.0 0.0 0.00 0.00 0.00 84 1015.9
20260906011035 77 118 0.0 0.0 0.00 0.00 0.00 84 1015.9
20260906010734 77 118 0.0 0.0 0.00 0.00 0.00 84 1016.0
20260906010613 77 118 0.0 0.0 0.00 0.00 0.00 84 1016.0
20260906010532 77 118 0.0 0.0 0.00 0.00 0.00 84 1016.0
20260906010518 77 71 0.0 0.0 0.00 0.00 0.00 84 1015.9
20260906010106 77 71 0.0 0.0 0.00 0.00 0.00 84 1015.9
20260906005910 77 71 0.0 0.0 0.00 0.00 0.00 83 1015.9
20260906005709 77 71 0.0 0.0 0.00 0.00 0.00 83 1015.9
20260906005603 77 71 0.0 0.0 0.00 0.00 0.00 83 1016.0
20260906005507 77 71 0.0 0.0 0.00 0.00 0.00 83 1015.9
20260906005306 77 68 0.0 0.0 0.00 0.00 0.00 83 1015.9
20260906005106 78 69 0.0 0.0 0.00 0.00 0.00 83 1015.9
20260906005100 78 69 0.0 0.0 0.00 0.00 0.00 83 1015.8
20260906004704 78 69 0.0 0.0 0.00 0.00 0.00 82 1015.8
20260906004603 78 68 0.0 0.0 0.00 0.00 0.00 82 1015.8
20260906004502 78 68 0.0 0.0 0.00 0.00 0.00 82 1015.8
20260906004303 78 68 0.0 0.0 0.00 0.00 0.00 82 1015.8
20260906004105 78 73 0.0 0.0 0.00 0.00 0.00 82 1015.8
20260906003902 78 78 0.0 0.0 0.00 0.00 0.00 82 1015.7
20260906003709 78 100 0.0 0.0 0.00 0.00 0.00 81 1015.7
20260906003704 78 121 0.0 0.0 0.00 0.00 0.00 82 1015.8
20260906003603 78 100 0.0 0.0 0.00 0.00 0.00 82 1015.8
20260906003301 79 102 0.0 0.0 0.00 0.00 0.00 81 1015.7
20260906003108 79 127 0.0 0.0 0.00 0.00 0.00 81 1015.7
20260906003103 79 23 0.0 0.0 0.00 0.00 0.00 81 1015.7
20260906002852 79 23 0.0 0.0 0.00 0.00 0.00 81 1015.6
20260906002748 79 58 0.0 0.0 0.00 0.00 0.00 80 1015.7
20260906002603 79 58 0.0 0.0 0.00 0.00 0.00 80 1015.7
20260906002446 79 58 0.0 0.0 0.00 0.00 0.00 80 1015.8
20260906002438 79 56 0.0 0.0 0.00 0.00 0.00 80 1015.7
20260906002349 79 32 0.0 0.0 0.00 0.00 0.00 80 1015.7
20260906002040 79 38 0.0 0.0 0.00 0.00 0.00 80 1015.7
20260906001842 79 168 0.0 0.0 0.00 0.00 0.00 80 1015.7
20260906001638 80 110 0.0 0.0 0.00 0.00 0.00 79 1015.6
20260906001603 80 110 0.0 0.0 0.00 0.00 0.00 79 1015.6
20260906001435 80 173 0.0 0.0 0.00 0.00 0.00 79 1015.7
20260906001334 80 173 0.0 0.0 0.00 0.00 0.00 79 1015.6
20260906001102 80 173 0.0 0.0 0.00 0.00 0.00 79 1015.5
20260906001034 80 23 0.0 0.0 0.00 0.00 0.00 79 1015.5
20260906000934 80 23 0.0 0.0 0.00 0.00 0.00 78 1015.5
20260906000607 80 159 0.0 0.0 0.00 0.00 0.00 77 1015.5
20260906000434 80 159 0.0 0.0 0.00 0.00 0.00 77 1015.5
20260906000207 80 106 0.0 0.0 0.00 0.00 0.00 77 1015.5
20260906000004 80 28 0.0 0.0 0.00 0.00 0.00 77 1015.4
20260905235904 81 162 0.0 0.0 0.00 0.00 0.00 77 1015.5
20260905235602 81 104 0.0 0.0 0.00 0.00 0.00 77 1015.5
20260905235534 81 37 0.0 0.0 0.00 0.00 0.00 76 1015.5
20260905235459 81 285 0.0 0.0 0.00 0.00 0.00 76 1015.4
20260905235203 81 4 0.0 0.0 0.00 0.00 0.00 76 1015.5
20260905235035 81 4 0.0 0.0 0.00 0.00 0.00 76 1015.4
20260905234931 81 4 0.0 0.0 0.00 0.00 0.00 76 1015.4
20260905234723 82 41 0.0 0.0 0.00 0.00 0.00 76 1015.5
20260905234522 82 75 0.0 0.0 0.00 0.00 0.00 76 1015.4
20260905234236 0 0.0 0.0 0.00 0.00 0.00
20260905234135 0 0.0 0.0 0.00 0.00 0.00
20260905234003 0 0.0 0.0 0.00 0.00 0.00
20260905233834 0 0.0 0.0 0.00 0.00 0.00
20260905233735 0 0.0 0.0 0.00 0.00 0.00
20260905233502 0 0.0 0.0 0.00 0.00 0.00
20260905233407 0 0.0 0.0 0.00 0.00 0.00
20260905233206 0 0.0 0.0 0.00 0.00 0.00
20260905233007 0 0.0 0.0 0.00 0.00 0.00 1015.4
20260905232807 0 0.0 0.0 0.00 0.00 0.00 1015.4
20260905232634 82 39 0.0 3.5 0.00 0.00 0.00 75 1015.4
20260905232435 82 39 0.0 6.1 0.00 0.00 0.00 75 1015.4
20260905232336 82 39 0.0 6.1 0.00 0.00 0.00 75 1015.4
20260905232210 82 39 0.0 6.1 0.00 0.00 0.00 75 1015.4
20260905231912 82 39 0.0 6.1 0.00 0.00 0.00 75 1015.3
20260905231712 82 39 0.0 6.1 0.00 0.00 0.00 75 1015.3
20260905231511 82 32 0.0 6.1 0.00 0.00 0.00 75 1015.2
20260905231410 82 25 0.0 4.3 0.00 0.00 0.00 75 1015.1
20260905231310 82 75 0.0 4.3 0.00 0.00 0.00 75 1015.1
20260905231211 82 4 0.0 4.3 0.00 0.00 0.00 75 1015.2
20260905230911 82 37 0.0 0.0 0.00 0.00 0.00 75 1015.2
20260905230710 82 41 0.0 0.0 0.00 0.00 0.00 75 1015.1
20260905230509 82 76 0.0 0.0 0.00 0.00 0.00 75 1015.1
20260905230408 82 45 0.0 0.0 0.00 0.00 0.00 75 1015.1
20260905230308 82 34 0.0 0.0 0.00 0.00 0.00 75 1015.1
20260905230244 82 51 0.0 0.0 0.00 0.00 0.00 76 1015.1
20260905230146 82 48 0.0 0.0 0.00 0.00 0.00 76 1015.1
20260905230138 82 42 0.0 0.0 0.00 0.00 0.00 76 1015.2
20260905225636 82 65 0.0 0.0 0.00 0.00 0.00 75 1015.1
20260905225435 82 158 0.0 0.0 0.00 0.00 0.00 76 1015.0
20260905225403 82 20 0.0 0.0 0.00 0.00 0.00 75 1015.1
20260905225232 82 21 0.0 0.0 0.00 0.00 0.00 75 1015.0
20260905225032 82 21 0.0 0.0 0.00 0.00 0.00 75 1015.0
20260905224902 82 25 0.0 1.7 0.00 0.00 0.00 75 1014.8
20260905224833 82 66 0.0 4.3 0.00 0.00 0.00 76 1014.8
20260905224709 82 66 0.0 6.1 0.00 0.00 0.00 76 1015.0
20260905224520 82 54 0.0 6.1 0.00 0.00 0.00 76 1014.8
20260905224403 82 39 0.0 6.1 0.00 0.00 0.00 76 1014.7
20260905224213 82 38 0.0 6.1 0.00 0.00 0.00 76 1014.8
20260905224012 82 31 0.0 6.1 0.00 0.00 0.00 76 1014.7
20260905223902 82 30 0.0 6.1 0.00 0.00 0.00 76 1014.7
20260905223808 82 48 0.0 6.1 0.00 0.00 0.00 76 1014.7
20260905223605 0 42 0.0 0.0 0.00 0.00 0.00 1014.7
20260905223407 0 0.0 0.0 0.00 0.00 0.00 1014.6
20260905223143 0 0.0 0.0 0.00 0.00 0.00
20260905223135 0 0.0 0.0 0.00 0.00 0.00
20260905222935 0 0.0 0.0 0.00 0.00 0.00
20260905222634 0 0.0 0.0 0.00 0.00 0.00
20260905222406 0 0.0 0.0 0.00 0.00 0.00
20260905222206 0 0.0 0.0 0.00 0.00 0.00
20260905222107 0 0.0 0.0 0.00 0.00 0.00 1014.5
20260905222005 0 0.0 0.0 0.00 0.00 0.00 1014.5
20260905221805 0 0.0 0.0 0.00 0.00 0.00 1014.5
20260905221637 82 86 0.0 0.0 0.00 0.00 0.00 79 1014.5
20260905221536 82 86 0.0 0.0 0.00 0.00 0.00 79 1014.5
20260905221334 82 86 0.0 0.0 0.00 0.00 0.00 79 1014.5
20260905221235 82 86 0.0 0.0 0.00 0.00 0.00 79 1014.5
20260905221033 82 86 0.0 0.0 0.00 0.00 0.00 79 1014.5
20260905220930 82 86 0.0 0.0 0.00 0.00 0.00 79 1014.5
20260905220728 82 86 0.0 0.0 0.00 0.00 0.00 79 1014.6
20260905220529 82 38 0.0 0.0 0.00 0.00 0.00 78 1014.7
20260905220509 82 0 0.0 0.0 0.00 0.00 0.00 78 1014.8
20260905220306 81 63 0.0 0.0 0.00 0.00 0.00 78 1014.8
20260905220200 81 61 0.0 0.0 0.00 0.00 0.00 78 1015.0
20260905220031 81 71 0.0 0.0 0.00 0.00 0.00 79 1015.0
20260905215901 81 72 0.0 0.0 0.00 0.00 0.00 78 1015.0
20260905215805 81 25 0.0 0.0 0.00 0.00 0.00 80 1014.8
20260905215529 81 25 0.0 0.0 0.00 0.00 0.00 80 1015.0
20260905215432 81 79 0.0 0.0 0.00 0.00 0.00 80 1015.0
20260905215231 81 39 0.0 0.0 0.00 0.00 0.00 80 1015.0
20260905215035 81 58 0.0 0.0 0.00 0.00 0.00 80 1015.0
20260905214829 81 34 0.0 0.0 0.00 0.00 0.00 80 1015.0
20260905214730 81 49 0.0 0.0 0.00 0.00 0.00 81 1015.1
20260905214514 81 37 0.0 0.0 0.00 0.00 0.00 81 1015.1
20260905214429 81 35 0.0 0.0 0.00 0.00 0.00 80 1015.1
20260905214233 81 65 0.0 0.0 0.00 0.00 0.00 80 1015.1
20260905214128 81 37 0.0 0.0 0.00 0.00 0.00 80 1015.2
20260905214013 81 37 0.0 0.0 0.00 0.00 0.00 80 1015.2
20260905213830 81 35 0.0 0.0 0.00 0.00 0.00 80 1015.2
20260905213758 81 24 0.0 0.0 0.00 0.00 0.00 80 1015.3
20260905213739 81 24 0.0 0.0 0.00 0.00 0.00 80 1015.4
20260905213500 81 24 0.0 0.0 0.00 0.00 0.00 80 1015.3
20260905213150 81 32 0.0 0.0 0.00 0.00 0.00 81 1015.3
20260905212933 81 45 0.0 0.0 0.00 0.00 0.00 81 1015.2
20260905212749 81 45 0.0 0.0 0.00 0.00 0.00 81 1015.2
20260905212649 81 45 0.0 0.0 0.00 0.00 0.00 80 1015.2
20260905212433 81 44 0.0 0.0 0.00 0.00 0.00 80 1015.2
20260905212348 81 45 0.0 0.0 0.00 0.00 0.00 80 1015.1
20260905212149 81 47 0.0 0.0 0.00 0.00 0.00 79 1015.1
20260905212038 81 44 0.0 0.0 0.00 0.00 0.00 80 1015.1
20260905211934 81 44 0.0 0.0 0.00 0.00 0.00 80 1015.1
20260905211731 81 34 0.0 0.0 0.00 0.00 0.00 80 1015.1
20260905211531 82 25 0.0 0.0 0.00 0.00 0.00 80 1015.1
20260905211431 82 0 0.0 0.0 0.00 0.00 0.00 79 1015.1
20260905211331 82 58 0.0 0.0 0.00 0.00 0.00 79 1015.1
20260905211231 82 42 0.0 0.0 0.00 0.00 0.00 79 1015.2
20260905210931 82 58 0.0 0.0 0.00 0.00 0.00 79 1015.1
20260905210729 82 8 0.0 0.0 0.00 0.00 0.00 79 1015.1
20260905210630 82 48 0.0 0.0 0.00 0.00 0.00 78 1015.1
20260905210449 82 69 0.0 0.0 0.00 0.00 0.00 78 1015.1
20260905210430 82 35 0.0 0.0 0.00 0.00 0.00 78 1015.1
20260905210129 82 45 0.0 0.0 0.00 0.00 0.00 78 1015.1
20260905205934 82 34 0.0 0.0 0.00 0.00 0.00 77 1015.1
20260905205737 82 17 0.0 0.0 0.00 0.00 0.00 78 1015.1
20260905205732 82 59 0.0 0.0 0.00 0.00 0.00 77 1015.1
20260905205723 83 13 0.0 0.0 0.00 0.00 0.00 78 1015.1
20260905205701 82 71 0.0 0.0 0.00 0.00 0.00 77 1015.1
20260905205130 0 8 0.0 0.0 0.00 0.00 0.00 1015.0
20260905205040 0 0.0 0.0 0.00 0.00 0.00 1015.0
20260905204935 0 0.0 0.0 0.00 0.00 0.00 1015.0
20260905204826 0 0.0 0.0 0.00 0.00 0.00
20260905204535 0 0.0 0.0 0.00 0.00 0.00
20260905204335 0 0.0 0.0 0.00 0.00 0.00
20260905204134 0 0.0 0.0 0.00 0.00 0.00
20260905204103 0 0.0 0.0 0.00 0.00 0.00
20260905203938 0 0.0 0.0 0.00 0.00 0.00
20260905203934 0 0.0 0.0 0.00 0.00 0.00
20260905203844 0 0.0 0.0 0.00 0.00 0.00
20260905203507 0 0.0 0.0 0.00 0.00 0.00 1015.4
20260905203406 0 0.0 0.0 0.00 0.00 0.00 1015.4
20260905203106 0 28 0.0 0.0 0.00 0.00 0.00 1015.4
20260905202852 83 28 0.0 6.1 0.00 0.00 0.00 78 1015.5
20260905202847 83 28 0.0 0.0 0.00 0.00 0.00 78 1015.4
20260905202829 83 28 0.0 6.1 0.00 0.00 0.00 78 1015.4
20260905202431 83 28 0.0 6.1 0.00 0.00 0.00 78 1015.4
20260905202232 83 28 0.0 8.7 0.00 0.00 0.00 78 1015.3
20260905202039 83 66 0.0 8.7 0.00 0.00 0.00 78 1015.6
20260905202004 83 44 0.0 8.7 0.00 0.00 0.00 78 1015.5
20260905201855 83 41 0.0 8.7 0.00 0.00 0.00 77 1015.6
20260905201830 83 31 0.0 8.7 0.00 0.00 0.00 77 1015.6
20260905201820 83 75 0.0 8.7 0.00 0.00 0.00 77 1015.6
20260905201351 83 121 0.0 8.7 0.00 0.00 0.00 77 1015.6
20260905201139 83 61 0.0 9.6 0.00 0.00 0.00 77 1015.7
20260905201052 83 45 0.0 9.6 0.00 0.00 0.00 77 1015.7
20260905201041 83 68 0.0 9.6 0.00 0.00 0.00 77 1015.7
20260905200737 83 61 0.0 9.6 0.00 0.00 0.00 77 1015.8
20260905200537 83 48 0.0 9.6 0.00 0.00 0.00 78 1015.9
20260905200332 83 65 0.0 9.6 0.00 0.00 0.00 77 1015.9
20260905200237 83 89 0.0 7.8 0.00 0.00 0.00 78 1016.0
20260905200100 83 65 0.0 7.8 0.00 0.00 0.00 77 1016.1
20260905195933 83 96 0.0 6.1 0.00 0.00 0.00 77 1016.2
20260905195728 0 44 0.0 3.5 0.00 0.00 0.00 1016.2
20260905195634 0 0.0 0.0 0.00 0.00 0.00 1016.2
20260905195531 0 0.0 0.0 0.00 0.00 0.00 1016.2
20260905195235 0 0.0 0.0 0.00 0.00 0.00
20260905195038 0 0.0 0.0 0.00 0.00 0.00
20260905195003 0 0.0 0.0 0.00 0.00 0.00
20260905194834 0 0.0 0.0 0.00 0.00 0.00
20260905194734 0 0.0 0.0 0.00 0.00 0.00
20260905194407 0 0.0 0.0 0.00 0.00 0.00
20260905194306 0 0.0 0.0 0.00 0.00 0.00 1016.5
20260905194010 0 0.0 0.0 0.00 0.00 0.00 1016.5
20260905193930 0 0.0 0.0 0.00 0.00 0.00 1016.5
20260905193735 0 0.0 0.0 0.00 0.00 0.00 1016.5
20260905193535 83 48 0.0 3.5 0.00 0.00 0.00 78 1016.5
20260905193404 83 48 0.0 5.2 0.00 0.00 0.00 78 1016.5
20260905193335 83 48 0.0 5.2 0.00 0.00 0.00 78 1016.5
20260905193231 83 48 0.0 5.2 0.00 0.00 0.00 78 1016.4
20260905192909 83 48 0.0 5.2 0.00 0.00 0.00 78 1016.4
20260905192731 83 41 0.0 5.2 0.00 0.00 0.00 78 1016.4
20260905192438 83 21 0.0 3.5 0.00 0.00 0.00 79 1016.5
20260905192400 83 61 0.0 3.5 0.00 0.00 0.00 79 1016.5
20260905192235 83 51 0.0 3.5 0.00 0.00 0.00 81 1016.5
20260905192151 83 47 0.0 3.5 0.00 0.00 0.00 81 1016.6
20260905192137 83 25 0.0 3.5 0.00 0.00 0.00 81 1016.6
20260905191834 83 59 0.0 3.5 0.00 0.00 0.00 81 1016.6
20260905191727 82 25 0.0 0.0 0.00 0.00 0.00 81 1016.6
20260905191430 82 25 0.0 0.0 0.00 0.00 0.00 81 1016.7
20260905191405 82 25 0.0 0.0 0.00 0.00 0.00 81 1016.8
20260905191310 82 27 0.0 0.0 0.00 0.00 0.00 81 1016.9
20260905191122 82 158 0.0 0.0 0.00 0.00 0.00 81 1016.8
20260905191106 82 158 0.0 0.0 0.00 0.00 0.00 81 1016.8
20260905190733 81 161 0.0 0.0 0.00 0.00 0.00 82 1016.9
20260905190534 81 39 0.0 0.0 0.00 0.00 0.00 82 1016.9
20260905190333 81 37 0.0 0.0 0.00 0.00 0.00 81 1016.9
20260905190135 81 37 0.0 3.5 0.00 0.00 0.00 83 1017.0
20260905190118 81 44 0.0 3.5 0.00 0.00 0.00 82 1017.0
20260905190058 81 44 0.0 3.5 0.00 0.00 0.00 82 1017.1
20260905185730 81 45 0.0 3.5 0.00 0.00 0.00 82 1017.0
20260905185623 81 45 0.0 3.5 0.00 0.00 0.00 82 1017.1
20260905185422 81 47 0.0 3.5 0.00 0.00 0.00 82 1017.0
20260905185331 81 47 0.0 3.5 0.00 0.00 0.00 82 1017.0
20260905185126 81 32 0.0 2.6 0.00 0.00 0.00 82 1017.1
20260905184927 81 35 0.0 1.7 0.00 0.00 0.00 83 1017.0
20260905184831 81 45 0.0 1.7 0.00 0.00 0.00 83 1017.0
20260905184726 81 45 0.0 1.7 0.00 0.00 0.00 83 1017.0
20260905184528 0 44 0.0 1.7 0.00 0.00 0.00 1017.0
20260905184330 0 0.0 0.0 0.00 0.00 0.00 1017.0
20260905184214 0 0.0 0.0 0.00 0.00 0.00
20260905184106 0 0.0 0.0 0.00 0.00 0.00
20260905184009 0 0.0 0.0 0.00 0.00 0.00
20260905183636 0 0.0 0.0 0.00 0.00 0.00
20260905183603 0 0.0 0.0 0.00 0.00 0.00
20260905183434 0 0.0 0.0 0.00 0.00 0.00
20260905183234 0 0.0 0.0 0.00 0.00 0.00
20260905183102 0 0.0 0.0 0.00 0.00 0.00
20260905183035 0 0.0 0.0 0.00 0.00 0.00
20260905182807 0 0.0 0.0 0.00 0.00 0.00 1017.1
20260905182709 0 0.0 0.0 0.00 0.00 0.00 1017.1
20260905182531 0 0.0 0.0 0.00 0.00 0.00 1017.1
20260905182507 80 216 0.0 0.0 0.00 0.00 0.00 84 1017.1
20260905182136 80 216 0.0 0.9 0.00 0.00 0.00 84 1017.1
20260905182030 80 216 0.0 1.7 0.00 0.00 0.00 84 1017.1
20260905181925 80 216 0.0 1.7 0.00 0.00 0.00 84 1017.1
20260905181726 80 216 0.0 1.7 0.00 0.00 0.00 84 1017.1
20260905181527 80 216 0.0 1.7 0.00 0.00 0.00 84 1017.1
20260905181325 80 217 0.0 1.7 0.00 0.00 0.00 82 1017.1
20260905181141 80 227 0.0 2.6 0.00 0.00 0.00 84 1017.2
20260905181125 80 217 0.0 1.7 0.00 0.00 0.00 82 1017.2
20260905181026 80 216 0.0 2.6 0.00 0.00 0.00 84 1017.2
20260905180726 79 305 0.0 3.5 0.00 0.00 0.00 86 1017.3
20260905180529 79 305 0.0 3.5 0.00 0.00 0.00 86 1017.2
20260905180325 79 305 0.0 3.5 0.00 0.00 0.00 86 1017.2
20260905180125 78 44 0.0 3.5 0.00 0.00 0.00 86 1017.2
20260905180030 78 178 0.0 2.6 0.00 0.00 0.00 86 1017.2
20260905175925 78 178 0.0 2.6 0.00 0.00 0.00 86 1017.2
20260905175731 0 0.0 0.0 0.00 0.00 0.00 1017.4
20260905175724 78 171 0.0 2.6 0.00 0.00 0.00 85 1017.3
20260905175526 0 0.0 0.0 0.00 0.00 0.00 1017.4
20260905175307 0 0.0 0.0 0.00 0.00 0.00
20260905175038 0 0.0 0.0 0.00 0.00 0.00
20260905175003 0 0.0 0.0 0.00 0.00 0.00
20260905174835 0 0.0 0.0 0.00 0.00 0.00
20260905174635 0 0.0 0.0 0.00 0.00 0.00
20260905174502 0 0.0 0.0 0.00 0.00 0.00
20260905174434 0 0.0 0.0 0.00 0.00 0.00
20260905174207 0 0.0 0.0 0.00 0.00 0.00 1017.7
20260905174010 0 0.0 0.0 0.00 0.00 0.00 1017.7
20260905173932 0 0.0 0.0 0.00 0.00 0.00 1017.7
20260905173905 0 0.0 0.0 0.00 0.00 0.00 1017.7
20260905173607 76 20 0.0 0.0 0.00 0.00 0.00 91 1017.7
20260905173447 76 20 0.0 0.0 0.00 0.00 0.00 91 1017.7
20260905173438 76 20 0.0 0.0 0.00 0.00 0.00 91 1017.7
20260905173135 76 20 0.0 0.0 0.00 0.00 0.00 91 1017.8
20260905172920 76 20 0.0 0.0 0.00 0.00 0.00 91 1017.8
20260905172735 76 20 0.0 0.0 0.00 0.00 0.00 91 1017.8
20260905172532 76 14 0.0 1.7 0.00 0.00 0.00 91 1017.9
20260905172433 76 47 0.0 1.7 0.00 0.00 0.00 91 1017.9
20260905172412 76 41 0.0 1.7 0.00 0.00 0.00 91 1017.9
20260905172130 76 49 0.0 2.6 0.00 0.00 0.00 91 1018.0
20260905172027 76 52 0.0 2.6 0.00 0.00 0.00 92 1018.0
20260905171911 76 41 0.0 2.6 0.00 0.00 0.00 92 1017.9
20260905171727 76 37 0.0 2.6 0.00 0.00 0.00 91 1017.9
20260905171527 75 35 0.0 2.6 0.00 0.00 0.00 92 1018.0
20260905171413 75 34 0.0 4.3 0.00 0.00 0.00 92 1018.0
20260905171323 75 35 0.0 4.3 0.00 0.00 0.00 92 1018.0
20260905171122 75 32 0.0 4.3 0.00 0.00 0.00 92 1018.0
20260905171028 75 34 0.0 4.3 0.00 0.00 0.00 92 1018.0
20260905170909 75 34 0.0 4.3 0.00 0.00 0.00 92 1018.0
20260905170721 75 35 0.0 4.3 0.00 0.00 0.00 92 1018.0
20260905170621 75 35 0.0 4.3 0.00 0.00 0.00 92 1018.0
20260905170407 75 13 0.0 3.5 0.00 0.00 0.00 92 1018.1
20260905170320 75 11 0.0 3.5 0.00 0.00 0.00 92 1018.1
20260905170120 75 7 0.0 3.5 0.00 0.00 0.00 93 1018.1
20260905165923 75 68 0.0 2.6 0.00 0.00 0.00 93 1018.2
20260905165907 75 66 0.0 2.6 0.00 0.00 0.00 93 1018.2
20260905165721 75 20 0.0 0.9 0.00 0.00 0.00 93 1018.1
20260905165513 74 48 0.0 0.0 0.00 0.00 0.00 94 1018.1
20260905165406 74 47 0.0 0.0 0.00 0.00 0.00 94 1018.1
20260905165312 74 45 0.0 0.0 0.00 0.00 0.00 94 1018.1
20260905165201 74 34 0.0 0.0 0.00 0.00 0.00 94 1018.1
20260905164910 0 0.0 0.0 0.00 0.00 0.00 1018.1
20260905164737 0 0.0 0.0 0.00 0.00 0.00
20260905164635 0 0.0 0.0 0.00 0.00 0.00
20260905164407 0 0.0 0.0 0.00 0.00 0.00
20260905164206 0 0.0 0.0 0.00 0.00 0.00
20260905164107 0 0.0 0.0 0.00 0.00 0.00
20260905164006 0 0.0 0.0 0.00 0.00 0.00
20260905163735 0 0.0 0.0 0.00 0.00 0.00
20260905163637 0 0.0 0.0 0.00 0.00 0.00 1018.1
20260905163606 0 0.0 0.0 0.00 0.00 0.00 1018.1
20260905163334 0 0.0 0.0 0.00 0.00 0.00 1018.1
20260905163235 0 0.0 0.0 0.00 0.00 0.00 1018.1
20260905163106 0 0.0 0.0 0.00 0.00 0.00 1018.1
20260905162907 73 37 0.0 0.0 0.00 0.00 0.00 96 1018.1
20260905162651 73 37 0.0 0.0 0.00 0.00 0.00 96 1018.1
20260905162553 73 37 0.0 0.0 0.00 0.00 0.00 96 1018.1
20260905162451 73 37 0.0 0.0 0.00 0.00 0.00 96 1018.2
20260905162232 73 37 0.0 0.0 0.00 0.00 0.00 96 1018.0
20260905162134 73 38 0.0 0.0 0.00 0.00 0.00 96 1018.0
20260905162032 73 38 0.0 0.0 0.00 0.00 0.00 96 1018.0
20260905161831 73 41 0.0 0.0 0.00 0.00 0.00 96 1017.9
20260905161630 73 75 0.0 0.0 0.00 0.00 0.00 97 1017.8
20260905161542 73 63 0.0 0.0 0.00 0.00 0.00 97 1017.7
20260905161530 73 21 0.0 0.0 0.00 0.00 0.00 97 1017.8
20260905161230 73 61 0.0 0.0 0.00 0.00 0.00 97 1017.8
20260905161044 73 61 0.0 0.0 0.00 0.00 0.00 97 1017.7
20260905160834 73 3 0.0 0.0 0.00 0.00 0.00 97 1017.7
20260905160633 73 0 0.0 0.0 0.00 0.00 0.00 97 1017.7
20260905160608 73 54 0.0 0.0 0.00 0.00 0.00 97 1017.7
20260905160554 73 54 0.0 0.0 0.00 0.00 0.00 97 1017.8
20260905160207 73 47 0.0 0.0 0.00 0.00 0.00 97 1017.8
20260905160116 72 41 0.0 0.0 0.00 0.00 0.00 98 1017.7
20260905160013 72 41 0.0 0.0 0.00 0.00 0.00 98 1017.7
20260905155806 72 41 0.0 0.0 0.00 0.00 0.00 98 1017.7
20260905155549 72 41 0.0 0.0 0.00 0.00 0.00 98 1017.7
20260905155454 72 44 0.0 0.0 0.00 0.00 0.00 98 1017.7
20260905155349 72 42 0.0 0.0 0.00 0.00 0.00 98 1017.7
20260905155241 0 0.0 0.0 0.00 0.00 0.00 1017.7
20260905155228 72 45 0.0 0.0 0.00 0.00 0.00 98 1017.7
20260905154631 0 0.0 0.0 0.00 0.00 0.00
20260905154500 0 0.0 0.0 0.00 0.00 0.00
20260905154334 0 0.0 0.0 0.00 0.00 0.00
20260905154203 0 0.0 0.0 0.00 0.00 0.00
20260905154110 0 0.0 0.0 0.00 0.00 0.00
20260905154100 0 0.0 0.0 0.00 0.00 0.00
20260905153804 0 0.0 0.0 0.00 0.00 0.00
20260905153631 0 0.0 0.0 0.00 0.00 0.00 1017.9
20260905153307 0 0.0 0.0 0.00 0.00 0.00 1017.9
20260905153132 0 0.0 0.0 0.00 0.00 0.00 1017.9
20260905153046 71 35 0.0 0.0 0.00 0.00 0.00 98 1017.9
20260905153034 71 35 0.0 0.0 0.00 0.00 0.00 98 1017.9
20260905152704 71 35 0.0 0.0 0.00 0.00 0.00 98 1017.9
20260905152505 71 35 0.0 0.0 0.00 0.00 0.00 98 1017.9
20260905152406 71 35 0.0 0.0 0.00 0.00 0.00 98 1017.8
20260905152259 71 35 0.0 0.0 0.00 0.00 0.00 98 1017.8
20260905152204 71 35 0.0 3.5 0.00 0.00 0.00 98 1017.7
20260905151901 71 35 0.0 3.5 0.00 0.00 0.00 98 1017.8
20260905151801 71 35 0.0 3.5 0.00 0.00 0.00 98 1017.7
20260905151701 71 35 0.0 3.5 0.00 0.00 0.00 98 1017.7
20260905151502 71 35 0.0 3.5 0.00 0.00 0.00 98 1017.7
20260905151302 71 38 0.0 3.5 0.00 0.00 0.00 98 1017.6
20260905151146 0 27 0.0 1.7 0.00 0.00 0.00 1017.4
20260905151101 71 25 0.0 1.7 0.00 0.00 0.00 98 1017.6
20260905151047 0 27 0.0 1.7 0.00 0.00 0.00 1017.5
20260905151026 0 27 0.0 1.7 0.00 0.00 0.00 1017.5
20260905150500 0 27 0.0 0.0 0.00 0.00 0.00 1017.4
20260905150301 0 0.0 0.0 0.00 0.00 0.00 1017.4
20260905150201 0 0.0 0.0 0.00 0.00 0.00
20260905150157 0 0.0 0.0 0.00 0.00 0.00
20260905145835 0 0.0 0.0 0.00 0.00 0.00
20260905145611 0 0.0 0.0 0.00 0.00 0.00
20260905145406 0 0.0 0.0 0.00 0.00 0.00
20260905145206 0 0.0 0.0 0.00 0.00 0.00
20260905145126 0 0.0 0.0 0.00 0.00 0.00
20260905144833 0 0.0 0.0 0.00 0.00 0.00 1017.1
20260905144538 0 0.0 0.0 0.00 0.00 0.00 1017.1
20260905144436 71 61 0.0 0.0 0.00 0.00 0.00 98 1017.1
20260905144403 71 61 0.0 0.0 0.00 0.00 0.00 98 1017.1
20260905144119 71 61 0.0 0.0 0.00 0.00 0.00 98 1017.1
20260905144114 71 61 0.0 0.0 0.00 0.00 0.00 98 1017.1
20260905144049 71 61 0.0 0.0 0.00 0.00 0.00 98 1017.1
20260905143636 71 61 0.0 0.0 0.00 0.00 0.00 98 1017.2
20260905143437 71 61 0.0 0.0 0.00 0.00 0.00 98 1017.2
20260905143345 70 59 0.0 0.0 0.00 0.00 0.00 98 1017.2
20260905143336 70 59 0.0 0.0 0.00 0.00 0.00 98 1017.2
20260905143131 70 42 0.0 0.0 0.00 0.00 0.00 98 1017.1
20260905143120 70 68 0.0 0.0 0.00 0.00 0.00 98 1017.2
20260905142636 70 28 0.0 0.0 0.00 0.00 0.00 98 1017.1
20260905142437 70 47 0.0 0.0 0.00 0.00 0.00 98 1017.2
20260905142337 70 48 0.0 0.0 0.00 0.00 0.00 98 1017.1
20260905142236 70 14 0.0 0.0 0.00 0.00 0.00 98 1017.1
20260905142123 70 56 0.0 0.0 0.00 0.00 0.00 98 1017.1
20260905142114 70 41 0.0 0.0 0.00 0.00 0.00 98 1017.1
20260905141636 70 44 0.0 0.0 0.00 0.00 0.00 98 1017.1
20260905141439 70 44 0.0 0.0 0.00 0.00 0.00 98 1017.2
20260905141342 70 45 0.0 0.0 0.00 0.00 0.00 98 1017.2
20260905141333 70 45 0.0 0.0 0.00 0.00 0.00 98 1017.2
20260905141130 70 39 0.0 0.0 0.00 0.00 0.00 98 1017.2
20260905141116 70 41 0.0 0.0 0.00 0.00 0.00 98 1017.2
20260905140631 70 35 0.0 0.0 0.00 0.00 0.00 98 1017.2
20260905140435 70 35 0.0 0.0 0.00 0.00 0.00 98 1017.2
20260905140334 70 35 0.0 0.0 0.00 0.00 0.00 98 1017.2
20260905140230 70 37 0.0 0.0 0.00 0.00 0.00 98 1017.1
20260905140030 70 35 0.0 0.0 0.00 0.00 0.00 98 1017.2
20260905135935 70 44 0.0 0.0 0.00 0.00 0.00 98 1017.1
20260905135834 70 44 0.0 0.0 0.00 0.00 0.00 98 1017.1
20260905135633 70 34 0.0 0.0 0.00 0.00 0.00 98 1017.1
20260905135537 70 34 0.0 0.0 0.00 0.00 0.00 98 1017.2
20260905135332 70 34 0.0 0.0 0.00 0.00 0.00 98 1017.2
20260905135232 70 34 0.0 0.0 0.00 0.00 0.00 98 1017.2
20260905135033 70 32 0.0 0.0 0.00 0.00 0.00 98 1017.2
20260905134832 70 32 0.0 0.0 0.00 0.00 0.00 98 1017.2
20260905134606 70 34 0.0 0.0 0.00 0.00 0.00 98 1017.2
20260905134506 70 34 0.0 0.0 0.00 0.00 0.00 98 1017.2
20260905134304 70 34 0.0 0.0 0.00 0.00 0.00 98 1017.2
20260905134150 70 35 0.0 0.0 0.00 0.00 0.00 98 1017.3
20260905134049 70 34 0.0 0.0 0.00 0.00 0.00 98 1017.3
20260905133746 70 34 0.0 0.0 0.00 0.00 0.00 98 1017.3
20260905133544 70 34 0.0 0.0 0.00 0.00 0.00 98 1017.2
20260905133439 69 34 0.0 0.0 0.00 0.00 0.00 98 1017.2
20260905133244 69 34 0.0 0.0 0.00 0.00 0.00 98 1017.2
20260905133144 70 34 0.0 0.0 0.00 0.00 0.00 98 1017.2
20260905133039 70 34 0.0 0.0 0.00 0.00 0.00 98 1017.2
20260905132755 69 32 0.0 0.0 0.00 0.00 0.00 98 1017.2
20260905132749 69 34 0.0 0.0 0.00 0.00 0.00 98 1017.2
20260905132542 69 34 0.0 0.0 0.00 0.00 0.00 98 1017.1
20260905132342 69 34 0.0 0.0 0.00 0.00 0.00 98 1017.2
20260905132243 69 35 0.0 0.0 0.00 0.00 0.00 98 1017.1
20260905132137 69 34 0.0 0.0 0.00 0.00 0.00 98 1017.0
20260905132037 69 32 0.0 0.0 0.00 0.00 0.00 98 1017.0
20260905131751 69 34 0.0 0.0 0.00 0.00 0.00 98 1017.0
20260905131636 69 34 0.0 0.0 0.00 0.00 0.00 98 1017.0
20260905131333 69 35 0.0 0.0 0.00 0.00 0.00 98 1017.0
20260905131249 69 34 0.0 0.0 0.00 0.00 0.00 98 1017.0
20260905131131 69 34 0.0 0.0 0.00 0.00 0.00 98 1017.0
20260905130933 69 35 0.0 0.0 0.00 0.00 0.00 98 1017.0
20260905130745 69 35 0.0 0.0 0.00 0.00 0.00 98 1017.0
20260905130732 69 35 0.0 0.0 0.00 0.00 0.00 98 1016.9
20260905130610 69 35 0.0 0.0 0.00 0.00 0.00 98 1016.9
20260905130315 69 34 0.0 0.0 0.00 0.00 0.00 98 1016.9
20260905130249 69 35 0.0 0.0 0.00 0.00 0.00 98 1016.9
20260905130202 69 34 0.0 0.0 0.00 0.00 0.00 98 1016.8
20260905125904 69 34 0.0 0.0 0.00 0.00 0.00 98 1016.7
20260905125735 69 35 0.0 0.0 0.00 0.00 0.00 98 1016.7
20260905125637 69 34 0.0 0.0 0.00 0.00 0.00 98 1016.7
20260905125437 69 34 0.0 0.0 0.00 0.00 0.00 98 1016.7
20260905125234 69 34 0.0 1.7 0.00 0.00 0.00 98 1016.6
20260905125035 69 34 0.0 1.7 0.00 0.00 0.00 98 1016.5
20260905124936 69 34 0.0 1.7 0.00 0.00 0.00 98 1016.3
20260905124733 69 34 0.0 1.7 0.00 0.00 0.00 98 1016.3
20260905124630 69 32 0.0 1.7 0.00 0.00 0.00 98 1016.2
20260905124527 69 34 0.0 2.6 0.00 0.00 0.00 98 1016.1
20260905124230 69 34 0.0 2.6 0.00 0.00 0.00 98 1016.0
20260905124030 69 34 0.0 2.6 0.00 0.00 0.00 98 1015.9
20260905123831 69 34 0.0 2.6 0.00 0.00 0.00 98 1015.9
20260905123748 69 34 0.0 2.6 0.00 0.00 0.00 98 1015.9
20260905123633 69 34 0.0 2.6 0.00 0.00 0.00 98 1015.8
20260905123528 69 52 0.0 1.7 0.00 0.00 0.00 98 1015.8
20260905123235 69 52 0.0 1.7 0.00 0.00 0.00 98 1015.7
20260905123131 69 52 0.0 1.7 0.00 0.00 0.00 98 1015.6
20260905122833 69 52 0.0 1.7 0.00 0.00 0.00 98 1015.6
20260905122737 69 52 0.0 1.7 0.00 0.00 0.00 98 1015.6
20260905122633 69 52 0.0 1.7 0.00 0.00 0.00 98 1015.5
20260905122434 69 52 0.0 0.9 0.00 0.00 0.00 98 1015.7
20260905122234 0 0.0 0.0 0.00 0.00 0.00 1015.7
20260905121938 0 0.0 0.0 0.00 0.00 0.00
20260905121702 0 0.0 0.0 0.00 0.00 0.00
20260905121607 0 0.0 0.0 0.00 0.00 0.00
20260905121407 0 0.0 0.0 0.00 0.00 0.00
20260905121206 0 0.0 0.0 0.00 0.00 0.00
20260905121007 0 0.0 0.0 0.00 0.00 0.00
20260905120936 0 0.0 0.0 0.00 0.00 0.00 1016.2
20260905120634 0 0.0 0.0 0.00 0.00 0.00 1016.2
20260905120535 0 0.0 0.0 0.00 0.00 0.00 1016.2
20260905120335 68 45 0.0 0.0 0.00 0.00 0.00 97 1016.2
20260905120136 68 45 0.0 0.0 0.00 0.00 0.00 97 1016.2
20260905115907 68 45 0.0 0.0 0.00 0.00 0.00 97 1016.2
20260905115710 68 45 0.0 2.6 0.00 0.00 0.00 97 1016.1
20260905115622 68 45 0.0 2.6 0.00 0.00 0.00 97 1016.1
20260905115512 68 45 0.0 2.6 0.00 0.00 0.00 97 1016.1
20260905115507 68 45 0.0 2.6 0.00 0.00 0.00 97 1016.1
20260905115122 68 45 0.0 2.6 0.00 0.00 0.00 97 1016.1
20260905115035 68 45 0.0 2.6 0.00 0.00 0.00 97 1016.0
20260905114827 68 45 0.0 2.6 0.00 0.00 0.00 97 1016.0
20260905114635 68 38 0.0 0.9 0.00 0.00 0.00 97 1016.0
20260905114622 68 39 0.0 0.9 0.00 0.00 0.00 97 1016.0
20260905114426 68 38 0.0 0.9 0.00 0.00 0.00 97 1016.0
20260905114229 68 38 0.0 0.9 0.00 0.00 0.00 97 1015.9
20260905114135 68 38 0.0 0.9 0.00 0.00 0.00 97 1015.9
20260905114031 0 37 0.0 0.0 0.00 0.00 0.00 1015.9
20260905114026 68 39 0.0 0.9 0.00 0.00 0.00 97 1015.9
20260905113625 0 0.0 0.0 0.00 0.00 0.00 1015.7
20260905113335 0 0.0 0.0 0.00 0.00 0.00
20260905113139 0 0.0 0.0 0.00 0.00 0.00
20260905113033 0 0.0 0.0 0.00 0.00 0.00
20260905112935 0 0.0 0.0 0.00 0.00 0.00
20260905112708 0 0.0 0.0 0.00 0.00 0.00
20260905112610 0 0.0 0.0 0.00 0.00 0.00
20260905112507 0 0.0 0.0 0.00 0.00 0.00
20260905112307 0 0.0 0.0 0.00 0.00 0.00 1015.7
20260905112137 0 0.0 0.0 0.00 0.00 0.00 1015.7
20260905112003 0 0.0 0.0 0.00 0.00 0.00 1015.7
20260905111835 0 0.0 0.0 0.00 0.00 0.00 1015.7
20260905111635 68 32 0.0 4.3 0.00 0.00 0.00 97 1015.7
20260905111508 68 32 0.0 4.3 0.00 0.00 0.00 97 1015.7
20260905111434 68 32 0.0 4.3 0.00 0.00 0.00 97 1015.7
20260905111207 68 32 0.0 4.3 0.00 0.00 0.00 97 1015.6
20260905111116 68 32 0.0 4.3 0.00 0.00 0.00 97 1015.6
20260905111012 68 32 0.0 4.3 0.00 0.00 0.00 97 1015.6
20260905110735 68 31 0.0 4.3 0.00 0.00 0.00 97 1015.7
20260905110633 68 61 0.0 2.6 0.00 0.00 0.00 97 1015.7
20260905110437 68 58 0.0 2.6 0.00 0.00 0.00 97 1015.8
20260905110331 68 58 0.0 2.6 0.00 0.00 0.00 97 1015.7
20260905110131 68 59 0.0 2.6 0.00 0.00 0.00 97 1015.7
20260905105940 68 0 0.0 1.7 0.00 0.00 0.00 97 1015.9
20260905105710 68 0 0.0 1.7 0.00 0.00 0.00 97 1015.8
20260905105608 68 0 0.0 2.6 0.00 0.00 0.00 97 1015.7
20260905105410 68 0 0.0 2.6 0.00 0.00 0.00 97 1015.8
20260905105309 68 0 0.0 2.6 0.00 0.00 0.00 97 1015.8
20260905105112 68 329 0.0 2.6 0.00 0.00 0.00 97 1015.7
20260905104906 68 330 0.0 2.6 0.00 0.00 0.00 97 1015.7
20260905104709 68 329 0.0 2.6 0.00 0.00 0.00 97 1015.7
20260905104608 68 37 0.0 2.6 0.00 0.00 0.00 97 1015.7
20260905104410 68 37 0.0 2.6 0.00 0.00 0.00 97 1015.6
20260905104307 68 37 0.0 3.5 0.00 0.00 0.00 97 1015.6
20260905104145 68 35 0.0 3.5 0.00 0.00 0.00 97 1015.6
20260905103836 68 56 0.0 3.5 0.00 0.00 0.00 97 1015.4
20260905103641 68 54 0.0 3.5 0.00 0.00 0.00 97 1015.4
20260905103431 68 72 0.0 3.5 0.00 0.00 0.00 97 1015.5
20260905103334 68 86 0.0 3.5 0.00 0.00 0.00 97 1015.6
20260905103233 68 42 0.0 3.5 0.00 0.00 0.00 97 1015.6
20260905103210 68 47 0.0 4.3 0.00 0.00 0.00 97 1015.5
20260905103117 68 45 0.0 5.2 0.00 0.00 0.00 97 1015.5
20260905102831 68 59 0.0 5.2 0.00 0.00 0.00 97 1015.5
20260905102731 68 41 0.0 5.2 0.00 0.00 0.00 97 1015.4
20260905102431 68 38 0.0 5.2 0.00 0.00 0.00 97 1015.5
20260905102339 68 39 0.0 5.2 0.00 0.00 0.00 97 1015.4
20260905102233 68 37 0.0 5.2 0.00 0.00 0.00 97 1015.5
20260905102108 68 0 0.0 5.2 0.00 0.00 0.00 97 1015.5
20260905102047 0 0.0 0.0 0.00 0.00 0.00 1015.5
20260905101542 0 0.0 0.0 0.00 0.00 0.00
20260905101534 0 0.0 0.0 0.00 0.00 0.00
20260905101307 0 0.0 0.0 0.00 0.00 0.00
20260905101248 0 0.0 0.0 0.00 0.00 0.00
20260905100809 0 0.0 0.0 0.00 0.00 0.00
20260905100605 0 0.0 0.0 0.00 0.00 0.00
20260905100516 0 0.0 0.0 0.00 0.00 0.00 1015.4
20260905100507 0 0.0 0.0 0.00 0.00 0.00
20260905100247 68 41 0.0 1.7 0.00 0.00 0.00 97 1015.4
20260905100212 68 41 0.0 1.7 0.00 0.00 0.00 97 1015.4
20260905100208 0 0.0 0.0 0.00 0.00 0.00 1015.4
20260905095734 68 41 0.0 3.5 0.00 0.00 0.00 97 1015.4
20260905095509 68 41 0.0 3.5 0.00 0.00 0.00 97 1015.4
20260905095432 68 41 0.0 3.5 0.00 0.00 0.00 97 1015.5
20260905095314 68 41 0.0 3.5 0.00 0.00 0.00 97 1015.4
20260905095218 68 41 0.0 3.5 0.00 0.00 0.00 97 1015.2
20260905095214 68 59 0.0 3.5 0.00 0.00 0.00 97 1015.1
20260905095201 68 41 0.0 3.5 0.00 0.00 0.00 97 1015.2
20260905094706 68 38 0.0 1.7 0.00 0.00 0.00 97 1014.7
20260905094611 68 8 0.0 0.9 0.00 0.00 0.00 97 1014.6
20260905094435 68 8 0.0 0.9 0.00 0.00 0.00 97 1014.6
20260905094313 68 8 0.0 0.9 0.00 0.00 0.00 97 1014.6
20260905094038 68 7 0.0 0.9 0.00 0.00 0.00 97 1014.6
20260905093926 68 8 0.0 1.7 0.00 0.00 0.00 97 1014.6
20260905093837 68 8 0.0 2.6 0.00 0.00 0.00 97 1014.6
20260905093743 68 8 0.0 2.6 0.00 0.00 0.00 97 1014.5
20260905093707 68 10 0.0 2.6 0.00 0.00 0.00 97 1014.5
20260905093700 68 8 0.0 2.6 0.00 0.00 0.00 97 1014.7
20260905093241 68 350 0.0 2.6 0.00 0.00 0.00 97 1014.6
20260905093039 68 350 0.0 2.6 0.00 0.00 0.00 97 1014.6
20260905092914 68 347 0.0 2.6 0.00 0.00 0.00 97 1014.6
20260905092809 68 14 0.0 2.6 0.00 0.00 0.00 97 1014.6
20260905092703 68 38 0.0 2.6 0.00 0.00 0.00 97 1014.6
20260905092652 68 18 0.0 2.6 0.00 0.00 0.00 97 1014.7
20260905092624 68 38 0.0 2.6 0.00 0.00 0.00 97 1014.6
20260905092211 68 38 0.0 2.6 0.00 0.00 0.00 97 1014.6
20260905092010 68 16 0.0 2.6 0.00 0.00 0.00 97 1014.7
20260905091921 68 14 0.0 2.6 0.00 0.00 0.00 97 1014.7
20260905091911 68 16 0.0 2.6 0.00 0.00 0.00 97 1014.7
20260905091709 68 14 0.0 2.6 0.00 0.00 0.00 97 1014.8
20260905091650 68 16 0.0 2.6 0.00 0.00 0.00 97 1014.7